This site uses a module created by best online poker sites.

BSB police report ending May 1, 2019

"04/30/2019","00:36","219CR0010029","ASSIST OTHER AGENCY","ASSIST OTHER AGENCY","I15 MM 102103 NB","",""
"04/30/2019","01:48","219CR0010030","SUSPICIOUS ACTIVITY","SUSPICIOUS ACTIVITY","1800 BLK WILSON","",""
"04/30/2019","02:35","219CR0010031","UNWANTED PERSON","UNWANTED PERSON","************","",""
"04/30/2019","02:39","219CR0010032","T/S","DUI PER SE .08 OR GREATER","FRONT AND CALIFORNIA","ARREST(s) MADE",""
"04/30/2019","04:40","219CR0010033","MEDICAL - EMERGENCY","MEDICAL - EMERGENCY","1 E LAPLATTE","",""
"04/30/2019","05:32","219CR0010034","BURGLARY","BURGLARY, RESIDENCE","225 N ALASKA","",""
"04/30/2019","06:11","219CR0010035","MEDICAL - EMERGENCY","MEDICAL - EMERGENCY","300 FOX DRIVE","",""
"04/30/2019","06:24","219CR0010036","ALARM - BURGLARY","ALARM - BURGLARY","************","",""
"04/30/2019","07:08","219CR0010037","BUSINESS CHECK","BUSINESS CHECK","531 S MONTANA","",""
"04/30/2019","07:35","219CR0010039","CIVIL PAPER SERVICE","CIVIL PAPER SERVICE","718 E 2ND","",""
"04/30/2019","07:35","219CR0010038","CIVIL PAPER SERVICE","CIVIL PAPER SERVICE","1031 S ARIZONA ST","",""
"04/30/2019","07:39","219CR0010040","CIVIL PAPER SERVICE","CIVIL PAPER SERVICE","1105 FARRELL","",""
"04/30/2019","07:48","219CR0010041","CIVIL PAPER SERVICE","CIVIL PAPER SERVICE","1413 BROWNING","",""
"04/30/2019","07:52","219CR0010042","DETENTION BUSINESS","DETENTION BUSINESS","************","",""
"04/30/2019","07:55","219CR0010043","T/S","T/S","MT HIGHLAND AND BLACKTAIL LOOP","",""
"04/30/2019","08:02","219CR0010044","THEFT","THEFT","3235 HARRISON AVE","",""
"04/30/2019","08:04","219CR0010045","DISTURBANCE","DISTURBANCE","317 GRANITE MTN RD","",""
"04/30/2019","08:32","219CR0010046","CIVIL PAPER SERVICE","CIVIL PAPER SERVICE","410 S EXCELSIOR","",""
"04/30/2019","08:37","219CR0010047","CIVIL PAPER SERVICE","CIVIL PAPER SERVICE","616 S WASHINGTON","",""
"04/30/2019","08:39","219CR0010048","T/S","T/S","3901 HARRISON AVE WALMART","",""
"04/30/2019","08:48","219CR0010049","CIVIL STANDBY","CIVIL STANDBY","3532 GAYLORD","",""
"04/30/2019","08:53","219CR0010050","CIVIL PAPER SERVICE","CIVIL PAPER SERVICE","436 S MAIN ST #105","",""
"04/30/2019","08:53","219CR0010051","ALARM-DURESS","ALARM-DURESS","************","",""
"04/30/2019","09:14","219CR0010052","CIVIL PAPER SERVICE","CIVIL PAPER SERVICE","3020 QUINEY","",""
"04/30/2019","09:26","219CR0010053","SUSPICIOUS ACTIVITY","SUSPICIOUS ACTIVITY","317 GRANITE MTN RD","",""
"04/30/2019","09:43","219CR0010054","CITIZEN AID","CITIZEN AID","3475 MONROE ST","",""
"04/30/2019","10:00","219CR0010055","DISTURBANCE","DISTURBANCE","I15 MM 129 EB","",""
"04/30/2019","10:26","219CR0010056","THEFT","THEFT, ALL OTHERS","FAIRMONT HOT SPRINGS","",""
"04/30/2019","10:44","219CR0010057","VANDALISM/CRIMINAL MISCHIEF","VANDALISM/CRIMINAL MISCHIEF","1340 HARRISON AVE","",""
"04/30/2019","11:17","219CR0010059","CIVIL PAPER SERVICE","CIVIL PAPER SERVICE","4800 HARRISON #16","",""
"04/30/2019","11:37","219CR0010061","INFORMATION ONLY","INFORMATION ONLY","1736 FARRAGUT AVE","",""
"04/30/2019","11:52","219CR0010062","BURGLARY","THEFT FROM BUILDINGS","16 W GALENA","ARREST(s) MADE",""
"04/30/2019","11:56","219CR0010063","CITIZEN AID","CITIZEN AID","2700 BLACKTAIL LOOP RD","",""
"04/30/2019","12:03","219CR0010064","FRAUD","FRAUD","2612 ELM","",""
"04/30/2019","12:03","219CR0010065","ASSAULT","ASSAULT, SIMPLE","55 BASIN CREEK RD","",""
"04/30/2019","12:06","219CR0010066","CITIZEN AID","CITIZEN AID","429 BIGHORN TRAIL","",""
"04/30/2019","12:10","219CR0010067","THEFT","THEFT","3901 HARRISON AVE","",""
"04/30/2019","12:59","219CR0010068","ALARM - FIRE","ALARM - FIRE","3701 ELIZABETH WARREN","",""
"04/30/2019","13:02","219CR0010069","LED BUSINESS","LED BUSINESS","UPTOWN FOOT PATROL","",""
"04/30/2019","13:03","219CR0010070","ANIMAL COMPLAINT","ANIMAL COMPLAINT","WASHOE AND HANSEN RD","",""
"04/30/2019","13:09","219CR0010071","WELFARE CHECK","WELFARE CHECK","4800 HARRISON AVE #14","",""
"04/30/2019","13:15","219CR0010072","THEFT","THEFT","709 PLACER ST","",""
"04/30/2019","13:16","219CR0010073","T/S","T/S","S ROCKER RD","",""
"04/30/2019","13:27","219CR0010075","DETENTION BUSINESS","DETENTION BUSINESS","************","",""
"04/30/2019","13:35","219CR0010076","LED BUSINESS","LED BUSINESS","155 W GRANITE","",""
"04/30/2019","13:39","219CR0010077","CITIZEN AID","CITIZEN AID","3400 HILL #807","",""
"04/30/2019","13:41","219CR0010078","ALARM - FIRE","ALARM - FIRE","3701 ELIZABETH WARREN","",""
"04/30/2019","14:30","219CR0010079","T/S","T/S @ HARRISON AND DUNDEE","HARRISON AND DUNDEE","",""
"04/30/2019","14:37","219CR0010080","THEFT","THEFT FROM MOTOR VEHICLE","410 VIRGINIA","",""
"04/30/2019","14:43","219CR0010081","T/S","T/S @ MONTANA ST AND SILVER ST","MONTANA ST AND SILVER ST","",""
"04/30/2019","14:52","219CR0010082","THEFT","ASSAULT, SIMPLE","133 W PARK","",""
"04/30/2019","15:04","219CR0010083","SUSPICIOUS ACTIVITY","SUSPICIOUS ACTIVITY","729 N MAIN ST","",""
"04/30/2019","15:12","219CR0010084","THEFT","THEFT","225 N ALASKA","",""
"04/30/2019","15:25","219CR0010085","VANDALISM/CRIMINAL MISCHIEF","VANDALISM/CRIMINAL MISCHIEF","","",""
"04/30/2019","15:28","219CR0010087","SUSPICIOUS ACTIVITY","SUSPICIOUS ACTIVITY","1107 S UTAH","",""
"04/30/2019","15:28","219CR0010086","UNWANTED PERSON","UNWANTED PERSON","************","",""
"04/30/2019","15:42","219CR0010088","THEFT","THEFT, ALL OTHERS","2414 ELM","",""
"04/30/2019","15:56","219CR0010089","VANDALISM/CRIMINAL MISCHIEF","THEFT FROM MOTOR VEHICLE","1701 S MONTANA ST","",""
"04/30/2019","16:22","219CR0010090","T/S","T/S @ ROWE RD AND DEWEY RD","ROWE RD AND DEWEY RD","",""
"04/30/2019","16:22","219CR0010091","T/S","T/S @ ","","",""
"04/30/2019","16:25","219CR0010092","ACCIDENT","ACCIDENT","COBBAN AND PHILLIPS","",""
"04/30/2019","16:42","219CR0010093","T/S","T/S @ 2400 BLK AMHERST AVE","2400 BLK AMHERST AVE","",""
"04/30/2019","17:14","219CR0010094","FIRE - OTHER","FIRE - OTHER","100 BLK N MONTANA","",""
"04/30/2019","17:35","219CR0010095","DISTURBANCE","DISTURBANCE","1024 MARYLAND #B","",""
"04/30/2019","17:38","219CR0010096","HARASSMENT","HARASSMENT","1665 1/2 GRAND","",""
"04/30/2019","17:55","219CR0010097","THEFT","THEFT","1900 BLK HARRISON AVE","",""
"04/30/2019","17:56","219CR0010098","HARASSMENT","HARASSMENT","1825 GAYLORD","",""
"04/30/2019","18:20","219CR0010099","ALL OTHER","POSSESSION OF DANGEROUS DRUGS","220 S MONTANA #3","ARREST(s) MADE",""
"04/30/2019","18:24","219CR0010100","WELFARE CHECK","WELFARE CHECK","1019 NEVADA","",""
"04/30/2019","18:25","219CR0010101","FOUND PROPERTY","FOUND PROPERTY","************","",""
"04/30/2019","19:18","219CR0010102","THEFT","THEFT, ALL OTHERS","2414 YALE","",""
"04/30/2019","19:23","219CR0010103","WELFARE CHECK","WELFARE CHECK","128 N IDAHO","",""
"04/30/2019","19:28","219CR0010104","WANTED PERSON","CRIMINAL CONTEMPT","712 E FRONT ST NORTHWEST PAWN","ARREST(s) MADE",""
"04/30/2019","19:33","219CR0010105","THEFT","THEFT","1921 PRINCETON ST","",""
"04/30/2019","20:07","219CR0010106","ALARM - FIRE","ALARM - FIRE","1800 FLORENCE","",""
"04/30/2019","20:12","219CR0010107","UNKNOWN PROBLEM","UNKNOWN PROBLEM","800 BLK MONTANA","",""
"04/30/2019","20:29","219CR0010108","ALL OTHER","ALL OTHER","2436 YALE AVE","",""
"04/30/2019","20:42","219CR0010109","ATL","ATL","SHOE STRING ANNIE // HIGHWAY 2","",""
"04/30/2019","20:45","219CR0010110","DISTURBANCE","PFMA - MINOR INJ/PHYSICAL CONT","3202 YALE AVE","",""
"04/30/2019","21:05","219CR0010111","WANTED PERSON","CRIMINAL CONTEMPT","1825 GAYLORD","ARREST(s) MADE",""
"04/30/2019","21:14","219CR0010112","ACCIDENT - INJURY","ACCIDENT - INJURY","I15 MM 126 NBND","",""
"04/30/2019","21:14","219CR0010113","ACCIDENT - INJURY","ACCIDENT - INJURY","","",""
"04/30/2019","22:39","219CR0010114","SUSPICIOUS ACTIVITY","SUSPICIOUS ACTIVITY","3035 MOULTON ST","",""
"04/30/2019","23:19","219CR0010115","ACCIDENT","ACCIDENT","PLATINUM AND TRAVONIA","",""
"04/30/2019","23:26","219CR0010116","BUSINESS CHECK","BUSINESS CHECK","531 S MONTANA","",""
"04/30/2019","23:41","219CR0010117","SUSPICIOUS ACTIVITY","SUSPICIOUS ACTIVITY","500 BLK S DAKOTA ST","",""
"04/30/2019","23:51","219CR0010118","SUSPICIOUS ACTIVITY","SUSPICIOUS ACTIVITY","618 W PLATNIUM","",""
"05/01/2019","00:05","219CR0010119","DISTURBANCE","DISTURBANCE","429 W IRON","",""
"05/01/2019","00:36","219CR0010120","UNWANTED PERSON","POSSESSION OF DANGEROUS DRUGS","1203 HOWARD","",""
"05/01/2019","00:50","219CR0010121","SUSPICIOUS ACTIVITY","SUSPICIOUS ACTIVITY","MINERS HOTEL 53 W PARK","",""
"05/01/2019","01:16","219CR0010122","SUSPICIOUS ACTIVITY","SUSPICIOUS ACTIVITY","S EXCELSIOR","",""
"05/01/2019","02:00","219CR0010123","ALARM - BURGLARY","ALARM - BURGLARY","************","",""
"05/01/2019","02:11","219CR0010124","MEDICAL - EMERGENCY","MEDICAL - EMERGENCY","300 MOUNT HIGHLAND DR","",""
"05/01/2019","02:13","219CR0010125","SUSPICIOUS ACTIVITY","SUSPICIOUS ACTIVITY","1409 S WARREN","",""
"05/01/2019","02:30","219CR0010126","SUSPICIOUS ACTIVITY","SUSPICIOUS ACTIVITY","58 W PARK","",""
"05/01/2019","03:25","219CR0010127","CIVIL STANDBY","CIVIL STANDBY","225 N ALASKA","",""
"05/01/2019","05:12","219CR0010128","SUSPICIOUS ACTIVITY","SUSPICIOUS ACTIVITY","701 DEWEY","",""
"05/01/2019","06:50","219CR0010129","ACCIDENT","ACCIDENT","ALUMINUM ST AND MONTANA ST","",""
"05/01/2019","07:30","219CR0010130","BURGLARY","BURGLARY","450 OHIO","",""
 

BSB police report ending April 30, 2019

"04/29/2019","01:01","219CR0009938","SUSPICIOUS ACTIVITY","SUSPICIOUS ACTIVITY","14 S DAKOTA","",""
"04/29/2019","04:36","219CR0009939","INTOXICATED PERSON","INTOXICATED PERSON","4655 HARRISON AVE","",""
"04/29/2019","06:25","219CR0009940","DETENTION BUSINESS","DETENTION BUSINESS","************","",""
"04/29/2019","06:36","219CR0009941","MEDICAL - EMERGENCY","MEDICAL - EMERGENCY","1140 LEWISHON","",""
"04/29/2019","06:48","219CR0009942","ALARM - BURGLARY","ALARM - BURGLARY","************","",""
"04/29/2019","06:50","219CR0009943","FIRE - OTHER","FIRE - OTHER","300 BLK S MONTANA","",""
"04/29/2019","06:52","219CR0009944","SUSPICIOUS ACTIVITY","SUSPICIOUS ACTIVITY","400 BLK OHIO","",""
"04/29/2019","07:13","219CR0009945","CIVIL PAPER SERVICE","CIVIL PAPER SERVICE","3501 HANCOCK","",""
"04/29/2019","07:21","219CR0009946","CIVIL PAPER SERVICE","CIVIL PAPER SERVICE","1959 FLORENCE","",""
"04/29/2019","07:29","219CR0009947","CIVIL PAPER SERVICE","CIVIL PAPER SERVICE","1015 COBBAN","",""
"04/29/2019","07:30","219CR0009948","CIVIL PAPER SERVICE","CIVIL PAPER SERVICE","111 W GOLD ST","",""
"04/29/2019","07:36","219CR0009949","CIVIL PAPER SERVICE","CIVIL PAPER SERVICE","1413 BROWNING","",""
"04/29/2019","07:51","219CR0009950","CIVIL PAPER SERVICE","CIVIL PAPER SERVICE","3 SUNVIEW TERR","",""
"04/29/2019","08:00","219CR0009951","WANTED PERSON","WANTED PERSON","************","",""
"04/29/2019","08:24","219CR0009952","MEDICAL - EMERGENCY","MEDICAL - EMERGENCY","1205 S MONTANA #28","",""
"04/29/2019","08:32","219CR0009953","SUSPICIOUS ACTIVITY","SUSPICIOUS ACTIVITY","1300 BLK W GRANITE ST","",""
"04/29/2019","08:39","219CR0009954","FOUND PROPERTY","FOUND PROPERTY","************","",""
"04/29/2019","08:51","219CR0009955","ABANDONED VEHICLE","ABANDONED VEHICLE","DAHLGREN ST AND OTTAWA ST","",""
"04/29/2019","09:00","219CR0009956","CIVIL PAPER SERVICE","CIVIL PAPER SERVICE","718 E 2ND","",""
"04/29/2019","09:09","219CR0009957","SUSPICIOUS ACTIVITY","SUSPICIOUS ACTIVITY","RR STREET","",""
"04/29/2019","09:15","219CR0009958","CIVIL PAPER SERVICE","CIVIL PAPER SERVICE","1031 S ARIZONA ST","",""
"04/29/2019","09:20","219CR0009959","CIVIL PAPER SERVICE","CIVIL PAPER SERVICE","1959 FLORENCE","",""
"04/29/2019","09:21","219CR0009960","DRUGS","DRUGS","************","",""
"04/29/2019","09:30","219CR0009961","ASSAULT","ASSAULT","************","",""
"04/29/2019","09:38","219CR0009962","SUSPICIOUS ACTIVITY","SUSPICIOUS ACTIVITY","1644 HARRISON","",""
"04/29/2019","09:43","219CR0009963","CITIZEN AID","CITIZEN AID","1109 SILVER BOW HOMES","",""
"04/29/2019","09:51","219CR0009964","SUSPICIOUS ACTIVITY","SUSPICIOUS ACTIVITY","1644 HARRISON AVE","",""
"04/29/2019","10:13","219CR0009965","CITIZEN AID","CITIZEN AID","RAILROAD ST // IOWA","",""
"04/29/2019","10:21","219CR0009966","MEDICAL - EMERGENCY","MEDICAL - EMERGENCY","2113 GRAND AVE","",""
"04/29/2019","10:28","219CR0009967","MEDICAL - EMERGENCY","MEDICAL - EMERGENCY","1000 N EMMETT ST","",""
"04/29/2019","11:06","219CR0009968","WELFARE CHECK","WELFARE CHECK","2290 COBBAN #3","",""
"04/29/2019","11:30","219CR0009969","ATL","ATL","400 S CLARK","",""
"04/29/2019","11:41","219CR0009970","LED BUSINESS","LED BUSINESS","155 W QUARTZ","",""
"04/29/2019","12:22","219CR0009971","RESTRAINING ORDER VIOLATION","VIOLATION OF PROTECTION ORDER","225 N ALASKA","",""
"04/29/2019","12:23","219CR0009972","CIVIL PAPER SERVICE","CIVIL PAPER SERVICE","838 ZARELDA","",""
"04/29/2019","12:30","219CR0009973","CIVIL PAPER SERVICE","CIVIL PAPER SERVICE","410 W BOARDMAN","",""
"04/29/2019","12:35","219CR0009974","ALL OTHER","ALL OTHER","225 N ALASKA","",""
"04/29/2019","12:43","219CR0009975","WELFARE CHECK","WELFARE CHECK","2315 SILVER BOW BLVD","",""
"04/29/2019","13:20","219CR0009976","JUVENILE MISC","JUVENILE MISC","************","",""
"04/29/2019","13:21","219CR0009977","TRAFFIC","TRAFFIC","1729 LOWELL","",""
"04/29/2019","13:25","219CR0009978","ACCIDENT","ACCIDENT","201 E FRONT","",""
"04/29/2019","13:27","219CR0009979","ATL","ATL","100 N CLARK ST","",""
"04/29/2019","13:57","219CR0009980","THEFT","THEFT, ALL OTHERS","1241 E 2ND ST","",""
"04/29/2019","14:00","219CR0009981","VANDALISM/CRIMINAL MISCHIEF","VANDALISM/CRIMINAL MISCHIEF","1375 JOY LANE","",""
"04/29/2019","14:02","219CR0009982","DISTURBANCE","DISTURBANCE","638 S NEVADA AVE","",""
"04/29/2019","14:17","219CR0009983","PARKING COMPLAINT","PARKING COMPLAINT","1017 MARYLAND","",""
"04/29/2019","14:25","219CR0009984","ALL OTHER","ALL OTHER","MOUNTAIN CON PARKING AREA","",""
"04/29/2019","14:29","219CR0009985","SUSPICIOUS ACTIVITY","SUSPICIOUS ACTIVITY","IRIS RIDGE ROAD","",""
"04/29/2019","14:41","219CR0009986","T/S","DRIVE WHILE SUSP. OR REVOKED","ST ANNS AND CONTINENTAL","ARREST(s) MADE",""
"04/29/2019","14:43","219CR0009987","SUSPICIOUS ACTIVITY","SUSPICIOUS ACTIVITY","CIVIC CENTER PARKING LOT","",""
"04/29/2019","14:52","219CR0009988","MEDICAL - EMERGENCY","MEDICAL - EMERGENCY","1111 SAMPSON","",""
"04/29/2019","15:04","219CR0009989","T/S","T/S @ HOLMES AVE AND BUSCH ST","HOLMES AVE AND BUSCH ST","",""
"04/29/2019","15:34","219CR0009990","ALL OTHER","ALL OTHER","225 N ALASKA","",""
"04/29/2019","15:39","219CR0009991","PARKING COMPLAINT","PARKING COMPLAINT","WHARTON ST AND GLADSTONE ST","",""
"04/29/2019","15:55","219CR0009992","HIT AND RUN","HIT AND RUN","MAIN AND PARK","",""
"04/29/2019","15:58","219CR0009993","PARKING COMPLAINT","PARKING COMPLAINT","825 8TH STREET","",""
"04/29/2019","16:14","219CR0009994","DRUGS","DRUGS","************","",""
"04/29/2019","16:40","219CR0009995","HARASSMENT","HARASSMENT","4034 ELIZABETH WARREN #110","",""
"04/29/2019","16:41","219CR0009996","MEDICAL - EMERGENCY","MEDICAL - EMERGENCY","2017 HARRISON","",""
"04/29/2019","17:03","219CR0009997","T/S","SPEEDING","AMHERST AND MEAD ST","",""
"04/29/2019","17:10","219CR0009998","PARKING COMPLAINT","PARKING COMPLAINT","115 ONEIL","",""
"04/29/2019","17:13","219CR0009999","T/S","T/S @ GRAND AVE AND HAYES AVE","GRAND AVE AND HAYES AVE","",""
"04/29/2019","17:14","219CR0010000","INFORMATION ONLY","INFORMATION ONLY","225 N ALASKA","",""
"04/29/2019","17:19","219CR0010001","UNWANTED PERSON","UNWANTED PERSON","************","",""
"04/29/2019","17:22","219CR0010002","T/S","T/S","QUARTZ AND MAIN","",""
"04/29/2019","17:27","219CR0010004","ACCIDENT","ACCIDENT","CLARK AND SILVER","",""
"04/29/2019","17:27","219CR0010003","T/S","T/S @ GRAND AND TEXAS","GRAND AND TEXAS","",""
"04/29/2019","17:37","219CR0010005","SUSPICIOUS ACTIVITY","SUSPICIOUS ACTIVITY","1415 STEELE","",""
"04/29/2019","17:46","219CR0010006","CIVIL STANDBY","CIVIL STANDBY","225 N ALASKA","",""
"04/29/2019","17:51","219CR0010007","HARASSMENT","HARASSMENT","50 W BROADWAY ST #402","",""
"04/29/2019","18:15","219CR0010008","WELFARE CHECK","WELFARE CHECK","1915 FLORENCE AVE","",""
"04/29/2019","18:29","219CR0010009","ALARM - BURGLARY","ALARM - BURGLARY","************","",""
"04/29/2019","19:12","219CR0010010","DRUGS","DRUGS","************","",""
"04/29/2019","19:14","219CR0010011","ASSAULT","ASSAULT","************","",""
"04/29/2019","19:19","219CR0010012","MEDICAL - EMERGENCY","MEDICAL - EMERGENCY","1501 MOTORVIEW RD","",""
"04/29/2019","19:26","219CR0010013","DISTURBANCE","DISTURBANCE","1430 N MAIN ST","",""
"04/29/2019","19:28","219CR0010014","VANDALISM/CRIMINAL MISCHIEF","VANDALISM/CRIMINAL MISCHIEF","828 S COLORADO","",""
"04/29/2019","19:28","219CR0010015","ALL OTHER","ALL OTHER","2436 YALE","",""
"04/29/2019","19:36","219CR0010016","FIRE - STRUCTURE","FIRE - STRUCTURE","334 WOLF TRAIL","",""
"04/29/2019","20:14","219CR0010017","UNKNOWN PROBLEM","UNKNOWN PROBLEM","649 S MONTANA","",""
"04/29/2019","20:46","219CR0010018","T/S","T/S","HARRISON AND DUNDEE","",""
"04/29/2019","20:58","219CR0010019","CITIZEN AID","CITIZEN AID","225 N ALASKA","",""
"04/29/2019","21:25","219CR0010020","SUSPICIOUS ACTIVITY","SUSPICIOUS ACTIVITY","119041 GERMAN GULCH RD","",""
"04/29/2019","21:39","219CR0010021","ATL","ATL","5 MILE RD","",""
"04/29/2019","22:09","219CR0010022","THEFT","THEFT OF SERVICES","2436 YALE AVE","",""
"04/29/2019","22:14","219CR0010023","T/S","T/S","HARRISON AND CIVIC CENTER RD","",""
"04/29/2019","22:20","219CR0010024","SUSPICIOUS ACTIVITY","SUSPICIOUS ACTIVITY","KEOKUK AND SHERIDAN","",""
"04/29/2019","23:08","219CR0010025","T/S","T/S @ PLATINUM AND DAKOTA","PLATINUM AND DAKOTA","",""
"04/29/2019","23:34","219CR0010027","SUSPICIOUS ACTIVITY","SUSPICIOUS ACTIVITY","3555 PAXSON","",""
"04/29/2019","23:34","219CR0010026","T/S","T/S @ DEWEY AND PAXSON","DEWEY AND PAXSON","",""
"04/29/2019","23:53","219CR0010028","DISTURBANCE-NOISE","DISTURBANCE-NOISE","2015 WALNUT ST","",""
"04/30/2019","00:36","219CR0010029","ASSIST OTHER AGENCY","ASSIST OTHER AGENCY","I15 MM 102103 NB","",""
"04/30/2019","01:48","219CR0010030","SUSPICIOUS ACTIVITY","SUSPICIOUS ACTIVITY","1800 BLK WILSON","",""
"04/30/2019","02:35","219CR0010031","UNWANTED PERSON","UNWANTED PERSON","************","",""
"04/30/2019","02:39","219CR0010032","T/S","DUI PER SE .08 OR GREATER","FRONT AND CALIFORNIA","ARREST(s) MADE",""
"04/30/2019","04:40","219CR0010033","MEDICAL - EMERGENCY","MEDICAL - EMERGENCY","1 E LAPLATTE","",""
"04/30/2019","05:32","219CR0010034","BURGLARY","BURGLARY, RESIDENCE","225 N ALASKA","",""
"04/30/2019","06:11","219CR0010035","MEDICAL - EMERGENCY","MEDICAL - EMERGENCY","300 FOX DRIVE","",""
"04/30/2019","06:24","219CR0010036","ALARM - BURGLARY","ALARM - BURGLARY","************","",""
"04/30/2019","07:08","219CR0010037","BUSINESS CHECK","BUSINESS CHECK","531 S MONTANA","",""
"04/30/2019","07:35","219CR0010038","CIVIL PAPER SERVICE","CIVIL PAPER SERVICE","1031 S ARIZONA ST","",""
"04/30/2019","07:35","219CR0010039","CIVIL PAPER SERVICE","CIVIL PAPER SERVICE","718 E 2ND","",""
"04/30/2019","07:39","219CR0010040","CIVIL PAPER SERVICE","CIVIL PAPER SERVICE","1105 FARRELL","",""
"04/30/2019","07:48","219CR0010041","CIVIL PAPER SERVICE","CIVIL PAPER SERVICE","1413 BROWNING","",""
"04/30/2019","07:55","219CR0010043","T/S","T/S @ MT HIGHLAND AND BLACKTAIL LOOP","MT HIGHLAND AND BLACKTAIL LOOP","",""
 

BSB police report ending April 29, 2019

"04/26/2019","00:11","219CR0009721","BUSINESS CHECK","BUSINESS CHECK","2000 DEWEY BLVD DOTTYS CASINO","",""
"04/26/2019","00:41","219CR0009722","ASSIST OTHER AGENCY","CRIMINAL MISCHIEF","62 W BROADWAY","ARREST(s) MADE",""
"04/26/2019","01:25","219CR0009723","INTOXICATED PERSON","INTOXICATED PERSON","2720 ELM","",""
"04/26/2019","01:46","219CR0009724","BUSINESS CHECK","BUSINESS CHECK","1 W PARK","",""
"04/26/2019","01:58","219CR0009725","SUSPICIOUS ACTIVITY","SUSPICIOUS ACTIVITY","76 W ALUMINUM","",""
"04/26/2019","02:05","219CR0009726","SUSPICIOUS ACTIVITY","CRIMINAL CONTEMPT","2000 BLK REYNOLDS","ARREST(s) MADE",""
"04/26/2019","02:19","219CR0009727","ALARM - BURGLARY","ALARM - BURGLARY","************","",""
"04/26/2019","03:32","219CR0009728","SUSPICIOUS ACTIVITY","SUSPICIOUS ACTIVITY","1106 LEWISHON","",""
"04/26/2019","03:35","219CR0009729","JUVENILE MISC","SEXUAL ASSAULT","************","",""
"04/26/2019","03:44","219CR0009730","SUSPICIOUS ACTIVITY","SUSPICIOUS ACTIVITY","200 N ALABAMA #A","",""
"04/26/2019","03:55","219CR0009731","FOUND PROPERTY","FOUND PROPERTY","************","",""
"04/26/2019","05:33","219CR0009732","MEDICAL - EMERGENCY","MEDICAL - EMERGENCY","2400 BLK CONTINENTAL DR","",""
"04/26/2019","06:05","219CR0009733","CITIZEN AID","CITIZEN AID","I15 NB","",""
"04/26/2019","06:36","219CR0009734","ALARM - FIRE","ALARM - FIRE","3701 ELIZABETH WARREN","",""
"04/26/2019","07:34","219CR0009735","FIRE - OTHER","FIRE - OTHER","1326 W PLATINUM ST","",""
"04/26/2019","07:57","219CR0009736","JUVENILE MISC","JUVENILE MISC","************","",""
"04/26/2019","08:29","219CR0009737","CIVIL PAPER SERVICE","CIVIL PAPER SERVICE","3136 SANDERS","",""
"04/26/2019","08:45","219CR0009738","CIVIL PAPER SERVICE","CIVIL PAPER SERVICE","127 W DALY","",""
"04/26/2019","08:50","219CR0009739","CIVIL PAPER SERVICE","CIVIL PAPER SERVICE","111 W BROADWAY","",""
"04/26/2019","08:52","219CR0009740","ASSIST OTHER AGENCY","ASSIST OTHER AGENCY","525 MINNESOTA","",""
"04/26/2019","08:54","219CR0009741","SUSPICIOUS ACTIVITY","SUSPICIOUS ACTIVITY","1324 HARRISON AVE","",""
"04/26/2019","09:04","219CR0009742","CIVIL PAPER SERVICE","CIVIL PAPER SERVICE","507 1/2 N WYOMING","",""
"04/26/2019","09:09","219CR0009743","BURGLARY","CRIMINAL TRESPASS TO PROPERTY","845 LEWISOHN","",""
"04/26/2019","09:15","219CR0009744","CITIZEN AID","CITIZEN AID","225 N ALASKA ST","",""
"04/26/2019","09:20","219CR0009745","CITIZEN AID","CITIZEN AID","","",""
"04/26/2019","09:29","219CR0009746","ALARM - BURGLARY","ALARM - BURGLARY","************","",""
"04/26/2019","09:35","219CR0009747","DETENTION BUSINESS","DETENTION BUSINESS","************","",""
"04/26/2019","09:36","219CR0009748","CIVIL PAPER SERVICE","CIVIL PAPER SERVICE","1031 S ARIZONA ST","",""
"04/26/2019","09:39","219CR0009749","BURGLARY","CRIMINAL MISCHIEF","3703 HARRISON AVE","",""
"04/26/2019","09:43","219CR0009750","CIVIL PAPER SERVICE","CIVIL PAPER SERVICE","410 1/2 S EXCELSIOR","",""
"04/26/2019","09:49","219CR0009751","CIVIL PAPER SERVICE","CIVIL PAPER SERVICE","326 N ALABAMA","",""
"04/26/2019","09:57","219CR0009752","CIVIL PAPER SERVICE","CIVIL PAPER SERVICE","838 ZARELDA","",""
"04/26/2019","10:01","219CR0009753","LED BUSINESS","LED BUSINESS","455 CENTENNIAL AVE","",""
"04/26/2019","10:11","219CR0009754","CIVIL PAPER SERVICE","CIVIL PAPER SERVICE","2522 PINE ST","",""
"04/26/2019","10:13","219CR0009755","CIVIL PAPER SERVICE","CIVIL PAPER SERVICE","445 CENTENIAL COMMUNITY HEALTH","",""
"04/26/2019","10:15","219CR0009756","THEFT","THEFT","","",""
"04/26/2019","10:18","219CR0009757","CIVIL PAPER SERVICE","CIVIL PAPER SERVICE","3136 FLORAL BLVD","",""
"04/26/2019","10:21","219CR0009758","THEFT","THEFT","32 S MAIN","",""
"04/26/2019","10:25","219CR0009759","CIVIL PAPER SERVICE","CIVIL PAPER SERVICE","3020 QUINCY","",""
"04/26/2019","10:32","219CR0009760","DISTURBANCE","DISTURBANCE","1000 GRIZZLY TR/MCDONALDS","",""
"04/26/2019","10:57","219CR0009761","TRAFFIC HAZARD","TRAFFIC HAZARD","1000 BLK S MONTANA","",""
"04/26/2019","10:59","219CR0009762","MAN WITH A GUN","ASSAULT WITH WEAPON","COPPER AND IDAHO","",""
"04/26/2019","11:22","219CR0009763","FOUND PROPERTY","FOUND PROPERTY","************","",""
"04/26/2019","12:24","219CR0009764","ACCIDENT","ACCIDENT","3700 BLK HARRISON AVE","",""
"04/26/2019","12:40","219CR0009765","FRAUD","FORGERY/COUNTERFEIT","123 E PARK RESCUE MISSION THRI","",""
"04/26/2019","12:46","219CR0009766","ALL OTHER","ALL OTHER","400 S CLARK","",""
"04/26/2019","13:06","219CR0009767","JUVENILE MISC","JUVENILE MISC","************","",""
"04/26/2019","13:41","219CR0009768","WELFARE CHECK","WELFARE CHECK","708 S WASHINGTON ST","",""
"04/26/2019","14:27","219CR0009769","THEFT","THEFT, SHOPLIFT","3901 HARRISON WALMART","",""
"04/26/2019","14:32","219CR0009770","SUSPICIOUS ACTIVITY","SUSPICIOUS ACTIVITY","671 S MAIN","",""
"04/26/2019","14:36","219CR0009771","SUSPICIOUS ACTIVITY","SUSPICIOUS ACTIVITY","2900 BLK IRENE","",""
"04/26/2019","14:37","219CR0009772","RESTRAINING ORDER VIOLATION","VIOLATION OF PROTECTION ORDER","17 S MAIN","",""
"04/26/2019","14:40","219CR0009773","DRUGS","POSSESS DRUG PARAPHERNALIA","2600 GRAND EAST MIDDLES SCHOOL","ARREST(s) MADE",""
"04/26/2019","15:10","219CR0009774","ACCIDENT","ACCIDENT","3901 HARRISON WALMART","",""
"04/26/2019","15:16","219CR0009775","JUVENILE MISC","JUVENILE MISC","************","",""
"04/26/2019","15:23","219CR0009776","SUSPICIOUS ACTIVITY","SUSPICIOUS ACTIVITY","MAIN AND ALUMINUM","",""
"04/26/2019","15:34","219CR0009777","ALARM - MEDICAL","ALARM - MEDICAL","************","",""
"04/26/2019","15:37","219CR0009778","FIRE- GAS ODOR","FIRE- GAS ODOR","1940 DEWEY BLVD 1ST MONTANA BA","",""
"04/26/2019","15:42","219CR0009779","STOLEN VEHICLE","MOTOR VEHICLE THEFT","3023 WHARTON","",""
"04/26/2019","15:46","219CR0009780","T/S","T/S","600 BLK S MONTANA","",""
"04/26/2019","15:51","219CR0009781","T/S","T/S","ALUMINUM AND PLR","",""
"04/26/2019","15:59","219CR0009782","SUSPICIOUS ACTIVITY","SUSPICIOUS ACTIVITY","81 W PARK WESTERN MENTAL HEALT","",""
"04/26/2019","16:05","219CR0009783","ALL OTHER","ALL OTHER","904 N MAIN","",""
"04/26/2019","16:07","219CR0009784","T/S","T/S","SILVER AND MONTANA","",""
"04/26/2019","16:16","219CR0009785","T/S","T/S","1100 BLK SCHLEY","",""
"04/26/2019","16:27","219CR0009786","ALL OTHER","ALL OTHER","3703 HARRISON AVE/SEARS","",""
"04/26/2019","16:35","219CR0009787","THEFT","THEFT, SHOPLIFT","3901 HARRISON WALMART","ARREST(s) MADE",""
"04/26/2019","16:41","219CR0009788","ALL OTHER","ALL OTHER","225 N ALASKA","",""
"04/26/2019","16:43","219CR0009789","ANIMAL COMPLAINT","ANIMAL COMPLAINT","1807 SILVERBOW HOMES","",""
"04/26/2019","17:01","219CR0009790","INTOXICATED PERSON","INTOXICATED PERSON","PLATINUM AND OHIO","",""
"04/26/2019","17:17","219CR0009791","T/S","T/S","1100 BLK S MONTANA","",""
"04/26/2019","17:20","219CR0009792","RESTRAINING ORDER VIOLATION","VIOLATION OF PROTECTION ORDER","910 EVANS #D8","",""
"04/26/2019","17:39","219CR0009793","MEDICAL - EMERGENCY","MEDICAL - EMERGENCY","2015 ABERDEEN","",""
"04/26/2019","17:40","219CR0009794","DISTURBANCE","DISTURBANCE","1001 S UTAH","",""
"04/26/2019","17:41","219CR0009795","MEDICAL - EMERGENCY","MEDICAL - EMERGENCY","2015 ABERDEEN","",""
"04/26/2019","17:44","219CR0009796","SUSPICIOUS ACTIVITY","SUSPICIOUS ACTIVITY","641 PLACER ST","",""
"04/26/2019","17:48","219CR0009797","OPEN BUILDING","OPEN BUILDING","CALEDONIA AND JACKSON","",""
"04/26/2019","17:57","219CR0009798","MEDICAL - EMERGENCY","MEDICAL - EMERGENCY","2110 HARVARD HANGING FIVE","",""
"04/26/2019","18:03","219CR0009799","T/S","T/S","DEWEY AND LEXINGTON","",""
"04/26/2019","18:08","219CR0009800","ALARM - BURGLARY","ALARM - BURGLARY","************","",""
"04/26/2019","18:30","219CR0009801","THEFT","THEFT","220 N WYOMING ST","",""
"04/26/2019","18:54","219CR0009802","SUSPICIOUS ACTIVITY","SUSPICIOUS ACTIVITY","900 BLK S COLORADO","",""
"04/26/2019","19:02","219CR0009803","DISTURBANCE","DISTURBANCE","COLORADO AND FREMONT","",""
"04/26/2019","19:08","219CR0009804","CITIZEN AID","CITIZEN AID","COLORADO ST AND PORPHYRY ST","",""
"04/26/2019","19:09","219CR0009805","JUVENILE MISC","JUVENILE MISC","************","",""
"04/26/2019","19:40","219CR0009806","WELFARE CHECK","WELFARE CHECK","2300 BLK OTTAWA","",""
"04/26/2019","19:54","219CR0009807","SEXUAL ASSAULT","SEXUAL ASSAULT","************","",""
"04/26/2019","20:08","219CR0009808","ACCIDENT","ACCIDENT","2930 HARRISON ST","",""
"04/26/2019","20:11","219CR0009809","THEFT","THEFT","828 S COLORADO","",""
"04/26/2019","21:04","219CR0009810","WELFARE CHECK","WELFARE CHECK","736 W GALENA ST","",""
"04/26/2019","22:03","219CR0009811","T/S","T/S @ ELIZABETH WARREN AND MT HIGHLA","ELIZABETH WARREN AND MT HIGHLA","",""
"04/26/2019","22:05","219CR0009812","FIRE - OTHER","FIRE - OTHER","3006 DIXON","",""
"04/26/2019","22:12","219CR0009813","SUSPICIOUS ACTIVITY","POSSESSION OF DANGEROUS DRUGS","606 W SILVER","",""
"04/26/2019","22:16","219CR0009814","SUSPICIOUS ACTIVITY","SUSPICIOUS ACTIVITY","A ST AND WARREN","",""
"04/26/2019","22:20","219CR0009815","THEFT","THEFT, SHOPLIFT","3901 HARRISON AVE","",""
"04/26/2019","22:27","219CR0009816","DISTURBANCE","DISTURBANCE","2340 CORNELL #424","",""
"04/26/2019","22:45","219CR0009817","ACCIDENT","ACCIDENT","3426 OTTAWA","",""
"04/26/2019","23:22","219CR0009818","T/S","T/S @ 2544 HARRISON AVE","2544 HARRISON AVE","",""
"04/26/2019","23:30","219CR0009819","ATL","ATL","GRANITE ST AND ALASKA ST","",""
"04/27/2019","00:02","219CR0009820","WELFARE CHECK","WELFARE CHECK","658 TRAVONIA","",""
"04/27/2019","00:17","219CR0009821","ACCIDENT","ACCIDENT","MOTORVIEW AND WYNNE","",""
"04/27/2019","01:34","219CR0009822","DISTURBANCE","DISTURBANCE","2645 GOODWIN ST","",""
"04/27/2019","01:37","219CR0009823","ALARM - BURGLARY","ALARM - BURGLARY","************","",""
"04/27/2019","02:12","219CR0009824","UNWANTED PERSON","OBSTRUCTING A PEACE OFFICER","301 E MERCURY ST","ARREST(s) MADE",""
"04/27/2019","03:11","219CR0009825","MEDICAL - EMERGENCY","MEDICAL - EMERGENCY","155 W QUARTZ","",""
"04/27/2019","03:14","219CR0009826","DISTURBANCE","DISTURBANCE","2449 PLACER ST","",""
"04/27/2019","03:40","219CR0009827","UNWANTED PERSON","POSSESSION OF DANGEROUS DRUGS","840 W PARK ST","ARREST(s) MADE",""
"04/27/2019","03:42","219CR0009828","CITIZEN AID","CITIZEN AID","200 TECHNOLOGY WAY","",""
"04/27/2019","05:13","219CR0009829","SUSPICIOUS ACTIVITY","SUSPICIOUS ACTIVITY","2449 PLACER ST","",""
"04/27/2019","05:45","219CR0009830","MEDICAL - EMERGENCY","MEDICAL - EMERGENCY","712 NEVADA","",""
"04/27/2019","06:17","219CR0009831","MEDICAL - EMERGENCY","MEDICAL - EMERGENCY","1000 GRIZZLY TR","",""
"04/27/2019","06:20","219CR0009832","ALARM - BURGLARY","ALARM - BURGLARY","************","",""
"04/27/2019","06:25","219CR0009833","DRUGS","DRUGS","************","",""
"04/27/2019","06:43","219CR0009834","MEDICAL - ASSIST","MEDICAL - ASSIST","************","",""
"04/27/2019","07:35","219CR0009835","T/S","T/S","CHULA AND PLACER ST","",""
"04/27/2019","07:50","219CR0009836","ALARM - BURGLARY","CRIMINAL CONTEMPT","4655 HARRISON AVE","ARREST(s) MADE",""
"04/27/2019","08:10","219CR0009837","WELFARE CHECK","WELFARE CHECK","116 W PARK ST","",""
"04/27/2019","09:39","219CR0009838","CIVIL PAPER SERVICE","CIVIL PAPER SERVICE","816 1ST ST","",""
"04/27/2019","10:16","219CR0009840","THEFT","CRIMINAL TRESPASS TO PROPERTY","317 MUNICH I90 AUTO","",""
"04/27/2019","10:33","219CR0009841","DISTURBANCE","DISTURBANCE","220 N WYOMING MOTEL 6","",""
"04/27/2019","10:49","219CR0009842","ANIMAL COMPLAINT-BITE","ANIMAL COMPLAINT-BITE","2600 BLOCK MOULTON","",""
"04/27/2019","11:13","219CR0009843","SUSPICIOUS ACTIVITY","SUSPICIOUS ACTIVITY","200 BLK W BOARDMAN","",""
"04/27/2019","11:28","219CR0009844","UNWANTED PERSON","UNWANTED PERSON","************","",""
"04/27/2019","11:47","219CR0009845","ANIMAL COMPLAINT","ANIMAL COMPLAINT","I15 MM 128 SB","",""
"04/27/2019","11:50","219CR0009846","ALL OTHER","ALL OTHER","SKYLINE PARK","",""
"04/27/2019","12:15","219CR0009847","MC COMPLAINT","MC COMPLAINT","2000 BLK CAROLINA W ALLEY","",""
"04/27/2019","12:24","219CR0009848","CIVIL PAPER SERVICE","CIVIL PAPER SERVICE","3901 HARRISON WALMART","",""
"04/27/2019","12:30","219CR0009849","DISTURBANCE","DISTURBANCE","3937 HARRISON DOLLAR TREE","",""
"04/27/2019","13:02","219CR0009850","THEFT","THEFT, ALL OTHERS","2551 HARRISON AVE","",""
"04/27/2019","13:31","219CR0009851","ANIMAL COMPLAINT","ANIMAL COMPLAINT","PLATINUM AND MONTANA","",""
"04/27/2019","13:36","219CR0009852","ALARM - BURGLARY","ALARM - BURGLARY","************","",""
"04/27/2019","13:39","219CR0009853","THEFT","THEFT, ALL OTHERS","832 ZARELDA","",""
"04/27/2019","14:13","219CR0009854","ACCIDENT","ACCIDENT","3540 HARRISON MONTANA CLUB","",""
"04/27/2019","14:17","219CR0009855","SUSPICIOUS ACTIVITY","SUSPICIOUS ACTIVITY","BROADWAY AND EMMETT","",""
"04/27/2019","14:42","219CR0009856","THEFT","THEFT, SHOPLIFT","901 N EXCELSIOR TOWN PUMP","",""
"04/27/2019","15:04","219CR0009857","UNWANTED PERSON","UNWANTED PERSON","************","",""
"04/27/2019","15:17","219CR0009858","ATL","ATL","MONTANA AND LASALLE","",""
"04/27/2019","15:29","219CR0009859","UNWANTED PERSON","CRIMINAL TRESPASS TO PROPERTY","3901 HARRISON WALMART","",""
"04/27/2019","15:34","219CR0009860","ALL OTHER","ALL OTHER","2201 WALL","",""
"04/27/2019","15:58","219CR0009861","WANTED PERSON","POSSESSION OF DANGEROUS DRUGS","3901 HARRISON WALMART","ARREST(s) MADE",""
"04/27/2019","16:26","219CR0009862","ATL","ATL","ROOSEVELT DR","",""
"04/27/2019","16:49","219CR0009863","JUVENILE MISC","JUVENILE MISC","************","",""
"04/27/2019","16:51","219CR0009864","THEFT","THEFT, SHOPLIFT","3901 HARRISON WALMART","",""
"04/27/2019","16:51","219CR0009865","SUSPICIOUS ACTIVITY","SUSPICIOUS ACTIVITY","1246 E FARRELL","",""
"04/27/2019","16:57","219CR0009866","ASSIST OTHER AGENCY","ASSIST OTHER AGENCY","I90 MM 235 EB","",""
"04/27/2019","17:08","219CR0009867","SUSPICIOUS ACTIVITY","SUSPICIOUS ACTIVITY","122000 W BROWNS GLCH FLYING J","",""
"04/27/2019","17:15","219CR0009868","MC COMPLAINT","MC COMPLAINT","1200 BLK HOWARD","",""
"04/27/2019","18:28","219CR0009870","UNWANTED PERSON","OBSTRUCTING A PEACE OFFICER","703 N MONTANA ST","ARREST(s) MADE",""
"04/27/2019","18:55","219CR0009871","SUSPICIOUS ACTIVITY","SUSPICIOUS ACTIVITY","3616 IRIS RIDGE","",""
"04/27/2019","19:27","219CR0009872","CITIZEN AID","CITIZEN AID","4810 SADDLE ROCK ROAD","",""
"04/27/2019","19:30","219CR0009873","MEDICAL - EMERGENCY","MEDICAL - EMERGENCY","1340 HARRISON AVE","",""
"04/27/2019","20:18","219CR0009874","SUSPICIOUS ACTIVITY","SUSPICIOUS ACTIVITY","MOTORVIEW RD AND RAM ST","",""
"04/27/2019","20:34","219CR0009875","STOLEN VEHICLE","MOTOR VEHICLE THEFT","26 S ROCKER RD","",""
"04/27/2019","20:56","219CR0009876","HIT AND RUN","DUI PER SE .08 OR GREATER","HARRISON AND HARVARD","ARREST(s) MADE",""
"04/27/2019","21:19","219CR0009877","UNWANTED PERSON","UNWANTED PERSON","************","",""
"04/27/2019","21:55","219CR0009878","THEFT","THEFT","3901 HARRISON AVE","",""
"04/27/2019","21:57","219CR0009879","MEDICAL - EMERGENCY","MEDICAL - EMERGENCY","1125 S MAIN ST","",""
"04/27/2019","22:17","219CR0009880","T/S","T/S","3766 HARRISON AV","",""
"04/27/2019","22:37","219CR0009881","ACCIDENT - INJURY","DUI DRUGS OR ALCOHOL","316 W PARK","",""
"04/27/2019","22:40","219CR0009882","ATL","ATL","2436 YALE ST","",""
"04/27/2019","22:51","219CR0009883","HIT AND RUN","HIT AND RUN","2326 PRINCETON ST","",""
"04/27/2019","23:14","219CR0009884","UNKNOWN PROBLEM","UNKNOWN PROBLEM","1 W PARK","",""
"04/27/2019","23:52","219CR0009885","ATL","ATL","1835 STUART AVE","",""
"04/28/2019","00:41","219CR0009886","ASSAULT","ASSAULT, SIMPLE","400 S CLARK ST","",""
"04/28/2019","00:58","219CR0009887","SUICIDE ATTEMPT/THREAT","SUICIDE ATTEMPT/THREAT","************","",""
"04/28/2019","01:10","219CR0009888","ALARM - BURGLARY","ALARM - BURGLARY","************","",""
"04/28/2019","01:38","219CR0009889","ACCIDENT","AGGRAVATED DUI","532 EDISON ST","ARREST(s) MADE",""
"04/28/2019","02:11","219CR0009890","DISTURBANCE","PROTECTIVE CUSTODY","400 S CLARK ST","ARREST(s) MADE",""
"04/28/2019","02:47","219CR0009891","MEDICAL - EMERGENCY","MEDICAL - EMERGENCY","226 W SILVER ST","",""
"04/28/2019","03:02","219CR0009892","JUVENILE MISC","JUVENILE MISC","************","",""
"04/28/2019","03:08","219CR0009893","SUSPICIOUS ACTIVITY","SUSPICIOUS ACTIVITY","MAIN ST AND FREEMONT ST","",""
"04/28/2019","04:20","219CR0009894","WELFARE CHECK","WELFARE CHECK","316 W DALY ST","",""
"04/28/2019","04:35","219CR0009895","MEDICAL - ASSIST","MEDICAL - ASSIST","************","",""
"04/28/2019","06:01","219CR0009896","UNWANTED PERSON","UNWANTED PERSON","************","",""
"04/28/2019","06:43","219CR0009897","ASSAULT","ASSAULT, SIMPLE","2436 YALE AVE","",""
"04/28/2019","07:03","219CR0009898","MEDICAL - EMERGENCY","MEDICAL - EMERGENCY","3131 AMHERST AVE","",""
"04/28/2019","07:48","219CR0009899","ALARM - FIRE","ALARM - FIRE","3701 ELIZABETH WARREN","",""
"04/28/2019","08:38","219CR0009900","ACCIDENT - INJURY","ACCIDENT - INJURY","I90 MM 227 EB","",""
"04/28/2019","08:53","219CR0009901","MEDICAL - EMERGENCY","MEDICAL - EMERGENCY","2100 FARRAGUT ST ANNS CHURCH","",""
"04/28/2019","08:57","219CR0009902","MEDICAL - EMERGENCY","MEDICAL - EMERGENCY","220 N WYOMING","",""
"04/28/2019","09:00","219CR0009903","BURGLARY","BURGLARY, RESIDENCE","27 E GALENA 2B","",""
"04/28/2019","09:16","219CR0009904","ACCIDENT","ACCIDENT","I90 228 WB","",""
"04/28/2019","09:33","219CR0009905","SUSPICIOUS ACTIVITY","SUSPICIOUS ACTIVITY","500 BLK N WYOMING","",""
"04/28/2019","09:39","219CR0009906","ACCIDENT","ACCIDENT","I90 EB","",""
"04/28/2019","10:10","219CR0009907","SUSPICIOUS ACTIVITY","SUSPICIOUS ACTIVITY","2711 HARRISON AVE TOWN PUMP","",""
"04/28/2019","10:36","219CR0009908","THEFT","THEFT FROM BUILDINGS","1411 SILVER BOW HOMES","",""
"04/28/2019","10:40","219CR0009909","MEDICAL - EMERGENCY","MEDICAL - EMERGENCY","50 W BROADWAY THE LEGGAT","",""
"04/28/2019","11:20","219CR0009910","THEFT","THEFT FROM MOTOR VEHICLE","3210 PAXSON","",""
"04/28/2019","11:25","219CR0009911","PARKING COMPLAINT","PARKING COMPLAINT","414 W GRANITE ST","",""
"04/28/2019","11:29","219CR0009912","UNWANTED PERSON","UNWANTED PERSON","************","",""
"04/28/2019","11:53","219CR0009913","UNWANTED PERSON","UNWANTED PERSON","************","",""
"04/28/2019","12:41","219CR0009914","T/S","T/S","2ND ST AND MONTANA ST","",""
"04/28/2019","12:45","219CR0009915","STOLEN VEHICLE","STOLEN VEHICLE","2449 PLR","",""
"04/28/2019","12:58","219CR0009916","BUSINESS CHECK","BUSINESS CHECK","58 W PARK","",""
"04/28/2019","13:39","219CR0009917","ABANDONED VEHICLE","ABANDONED VEHICLE","CLARK AND MERCURY","",""
"04/28/2019","14:20","219CR0009918","BURGLARY","BURGLARY, NON-RESIDENCE","1301 S UTAH","",""
"04/28/2019","14:23","219CR0009919","T/S","T/S","2800 BLK ROWE RD","",""
"04/28/2019","14:33","219CR0009920","FIRE- GAS ODOR","FIRE- GAS ODOR","1310 TEXAS","",""
"04/28/2019","14:49","219CR0009921","VEHICLE INSPECTION","VEHICLE INSPECTION","3201 FLORAL BLVD","",""
"04/28/2019","15:03","219CR0009922","DISTURBANCE","DISTURBANCE","2647 GOODWIN","",""
"04/28/2019","15:46","219CR0009923","ACCIDENT","CARELESS DRIVING","PLATINUM AND MONTANA","",""
"04/28/2019","16:03","219CR0009924","SUSPICIOUS ACTIVITY","SUSPICIOUS ACTIVITY","901 E FRONT THRIFTWAY","",""
"04/28/2019","16:38","219CR0009925","ATL","ATL","I15 MM 122 NB","",""
"04/28/2019","17:07","219CR0009926","WELFARE CHECK","WELFARE CHECK","205 W GRANITE #402","",""
"04/28/2019","17:28","219CR0009927","FIRE - OTHER","FIRE - OTHER","910 EVANS","",""
"04/28/2019","17:59","219CR0009928","T/S","T/S","ERROR","",""
"04/28/2019","18:23","219CR0009929","DRUGS","DRUGS","************","",""
"04/28/2019","19:46","219CR0009930","WELFARE CHECK","WELFARE CHECK","1246 E 2ND ST","",""
"04/28/2019","20:19","219CR0009931","UNWANTED PERSON","CRIMINAL MISCHIEF","207 W PARK ST","ARREST(s) MADE",""
"04/28/2019","21:04","219CR0009932","FOUND PROPERTY","FOUND PROPERTY","************","",""
"04/28/2019","22:02","219CR0009933","BUSINESS CHECK","BUSINESS CHECK","20 W GALENA","",""
"04/28/2019","22:28","219CR0009934","MEDICAL - EMERGENCY","MEDICAL - EMERGENCY","4852 S WARREN AVE","",""
"04/28/2019","22:54","219CR0009935","ACCIDENT","CARELESS DRIVING","2509 STATE ST","",""
"04/28/2019","22:54","219CR0009936","INTOXICATED PERSON","INTOXICATED PERSON","630 W GALENA","",""
"04/28/2019","22:59","219CR0009937","SUSPICIOUS ACTIVITY","SUSPICIOUS ACTIVITY","6 E SECOND","",""
"04/29/2019","01:01","219CR0009938","SUSPICIOUS ACTIVITY","SUSPICIOUS ACTIVITY","14 S DAKOTA","",""
"04/29/2019","04:36","219CR0009939","INTOXICATED PERSON","INTOXICATED PERSON","4655 HARRISON AVE","",""
"04/29/2019","06:36","219CR0009941","MEDICAL - EMERGENCY","MEDICAL - EMERGENCY","1140 LEWISHON","",""
"04/29/2019","06:48","219CR0009942","ALARM - BURGLARY","ALARM - BURGLARY","************","",""
"04/29/2019","06:50","219CR0009943","FIRE - OTHER","FIRE - OTHER","300 BLK S MONTANA","",""
"04/29/2019","06:52","219CR0009944","SUSPICIOUS ACTIVITY","SUSPICIOUS ACTIVITY","400 BLK OHIO","",""
"04/29/2019","07:13","219CR0009945","CIVIL PAPER SERVICE","CIVIL PAPER SERVICE","3501 HANCOCK","",""
"04/29/2019","07:21","219CR0009946","CIVIL PAPER SERVICE","CIVIL PAPER SERVICE","1959 FLORENCE","",""
"04/29/2019","07:29","219CR0009947","CIVIL PAPER SERVICE","CIVIL PAPER SERVICE","1015 COBBAN","",""
"04/29/2019","07:30","219CR0009948","CIVIL PAPER SERVICE","CIVIL PAPER SERVICE","111 W GOLD ST","",""
"04/29/2019","07:36","219CR0009949","CIVIL PAPER SERVICE","CIVIL PAPER SERVICE","1413 BROWNING","",""
"04/29/2019","07:51","219CR0009950","CIVIL PAPER SERVICE","CIVIL PAPER SERVICE","3 SUNVIEW TERR","",""
 

BSB police report April 26, 2019

"04/25/2019","00:13","219CR0009630","WELFARE CHECK","WELFARE CHECK","2823 1/2 WALNUT","",""
"04/25/2019","00:38","219CR0009631","MEDICAL - EMERGENCY","MEDICAL - EMERGENCY","2340 CORNELL #102","",""
"04/25/2019","01:10","219CR0009632","ALARM - BURGLARY","ALARM - BURGLARY","************","",""
"04/25/2019","01:21","219CR0009633","T/S","T/S","SECOND AND UTAH","",""
"04/25/2019","02:22","219CR0009634","CITIZEN AID","CITIZEN AID","1370 HARRISON","",""
"04/25/2019","03:05","219CR0009635","DISTURBANCE-NOISE","DISTURBANCE-NOISE","825 17TH ST","",""
"04/25/2019","03:18","219CR0009636","SUSPICIOUS ACTIVITY","SUSPICIOUS ACTIVITY","BASE OF BIG M","",""
"04/25/2019","04:38","219CR0009637","SUSPICIOUS ACTIVITY","SUSPICIOUS ACTIVITY","411 BROWNS GULCH RD","",""
"04/25/2019","06:36","219CR0009638","DETENTION BUSINESS","DETENTION BUSINESS","************","",""
"04/25/2019","07:32","219CR0009639","CIVIL PAPER SERVICE","CIVIL PAPER SERVICE","665 S MAIN","",""
"04/25/2019","07:38","219CR0009640","CIVIL PAPER SERVICE","CIVIL PAPER SERVICE","1837 OREGON AVE","",""
"04/25/2019","07:45","219CR0009641","CIVIL PAPER SERVICE","CIVIL PAPER SERVICE","326 N ALABAMA","",""
"04/25/2019","07:52","219CR0009642","CIVIL PAPER SERVICE","CIVIL PAPER SERVICE","3122 ARGYLE","",""
"04/25/2019","07:54","219CR0009643","CIVIL PAPER SERVICE","CIVIL PAPER SERVICE","838 ZARELDA","",""
"04/25/2019","08:01","219CR0009644","SUSPICIOUS ACTIVITY","SUSPICIOUS ACTIVITY","RR TRESTLE ROOSEVELT DR","",""
"04/25/2019","08:07","219CR0009645","ATL","ATL","ANACONDA","",""
"04/25/2019","08:16","219CR0009646","DRUGS","DRUGS","************","",""
"04/25/2019","08:43","219CR0009647","LED BUSINESS","LED BUSINESS","155 W GRANITE","",""
"04/25/2019","08:52","219CR0009648","T/S","BUY/POSSESS STOLEN PROPERTY","BROADWAY AND WYOMING","ARREST(s) MADE",""
"04/25/2019","09:15","219CR0009649","JUVENILE MISC","JUVENILE MISC","************","",""
"04/25/2019","09:25","219CR0009650","FIRE - OTHER","FIRE - OTHER","204 NASSAU","",""
"04/25/2019","09:28","219CR0009651","THEFT","THEFT, ALL OTHERS","2024 GRAND AVE","",""
"04/25/2019","09:37","219CR0009652","ALARM - FIRE","ALARM - FIRE","62 W BROADWAY","",""
"04/25/2019","09:44","219CR0009653","LOST OR STOLEN PROPERTY","LOST OR STOLEN PROPERTY","2100 CORNELL/QUALITY INN","",""
"04/25/2019","09:48","219CR0009654","DETENTION BUSINESS","DETENTION BUSINESS","************","",""
"04/25/2019","10:02","219CR0009655","ALARM - BURGLARY","ALARM - BURGLARY","************","",""
"04/25/2019","10:19","219CR0009656","BUSINESS CHECK","BUSINESS CHECK","58 W PARK ST PARKING GARAGE","",""
"04/25/2019","10:33","219CR0009657","ALL OTHER","ALL OTHER","","",""
"04/25/2019","10:37","219CR0009658","CRIMINAL TRESPASS","CRIMINAL TRESPASS","2930 HANNIBAL","",""
"04/25/2019","10:54","219CR0009659","JUVENILE MISC","JUVENILE MISC","************","",""
"04/25/2019","11:15","219CR0009660","MEDICAL - EMERGENCY","MEDICAL - EMERGENCY","2425 CORNELL AVE","",""
"04/25/2019","11:31","219CR0009661","STOLEN VEHICLE","STOLEN VEHICLE","225 N ALASKA ST","",""
"04/25/2019","11:34","219CR0009662","THEFT","THEFT","712 E FRONT ST NORTHWEST PAWN","",""
"04/25/2019","11:40","219CR0009663","INFORMATION ONLY","INFORMATION ONLY","2600 GRAND AVE","",""
"04/25/2019","11:48","219CR0009664","ASSIST OTHER AGENCY","ASSIST OTHER AGENCY","525 MINNESOTA","",""
"04/25/2019","12:04","219CR0009665","DETENTION BUSINESS","DETENTION BUSINESS","************","",""
"04/25/2019","12:40","219CR0009666","WANTED PERSON","WANTED PERSON","************","",""
"04/25/2019","13:29","219CR0009667","VANDALISM/CRIMINAL MISCHIEF","VANDALISM/CRIMINAL MISCHIEF","327 N WYOMING","",""
"04/25/2019","13:41","219CR0009668","DISTURBANCE","DISTURBANCE","2710 GEORGE","",""
"04/25/2019","13:42","219CR0009669","ACCIDENT","ACCIDENT","CRYSTAL AND MERCURY","",""
"04/25/2019","14:13","219CR0009671","DISTURBANCE","DISTURBANCE","629 S MONTANA","",""
"04/25/2019","14:18","219CR0009672","HARASSMENT","HARASSMENT","225 N ALASKA ST","",""
"04/25/2019","14:24","219CR0009673","HARASSMENT","HARASSMENT","1640 WILSON","",""
"04/25/2019","14:44","219CR0009674","SUSPICIOUS ACTIVITY","SUSPICIOUS ACTIVITY","1117 CALIFORNIA","",""
"04/25/2019","14:46","219CR0009675","VEHICLE INSPECTION","VEHICLE INSPECTION","225 N ALASKA ST","",""
"04/25/2019","14:53","219CR0009676","UNWANTED PERSON","UNWANTED PERSON","************","",""
"04/25/2019","15:15","219CR0009677","SUSPICIOUS ACTIVITY","SUSPICIOUS ACTIVITY","ARIZONA AND ELECTRIC","",""
"04/25/2019","15:21","219CR0009678","T/S","T/S","","",""
"04/25/2019","15:37","219CR0009679","ASSIST OTHER AGENCY","POSSESSION OF DANGEROUS DRUGS","531 S MONTANA ST","ARREST(s) MADE",""
"04/25/2019","15:40","219CR0009680","SUSPICIOUS ACTIVITY","SUSPICIOUS ACTIVITY","500 BLK E MERCURY S ALLEY","",""
"04/25/2019","16:04","219CR0009681","THEFT","THEFT, SHOPLIFT","3700 HARRISON AVE","",""
"04/25/2019","16:08","219CR0009682","WELFARE CHECK","WELFARE CHECK","401 S ALABAMA","",""
"04/25/2019","16:14","219CR0009683","VANDALISM/CRIMINAL MISCHIEF","VANDALISM/CRIMINAL MISCHIEF","1375 JOY LANE","",""
"04/25/2019","16:23","219CR0009684","WELFARE CHECK","WELFARE CHECK","2705 ARGYLE #7","",""
"04/25/2019","16:23","219CR0009685","T/S","T/S","HARRISON AND A ST","",""
"04/25/2019","16:27","219CR0009686","ALL OTHER","ALL OTHER","944 S WYOMING ST","",""
"04/25/2019","16:42","219CR0009687","WELFARE CHECK","WELFARE CHECK","SOUTH DRIVE // WEST DRIVE","",""
"04/25/2019","16:48","219CR0009688","MEDICAL - EMERGENCY","MEDICAL - EMERGENCY","1125 S MAIN #103","",""
"04/25/2019","17:10","219CR0009689","T/S","T/S","3001 HARRISON MCDONALDS RESTAU","",""
"04/25/2019","17:35","219CR0009690","FOUND PROPERTY","FOUND PROPERTY","************","",""
"04/25/2019","17:43","219CR0009691","ALL OTHER","ALL OTHER","429 W IRON","",""
"04/25/2019","17:58","219CR0009692","T/S","STOP SIGN VIOLATION","SHERMAN ST AND YALE ST","",""
"04/25/2019","17:58","219CR0009693","SUSPICIOUS ACTIVITY","SUSPICIOUS ACTIVITY","333 E BROADWAY","",""
"04/25/2019","18:42","219CR0009694","DISTURBANCE","DISTURBANCE","BUSCH AND ROOSEVELT","",""
"04/25/2019","18:51","219CR0009695","SUSPICIOUS ACTIVITY","SUSPICIOUS ACTIVITY","3400 S HILCREST DR","",""
"04/25/2019","19:04","219CR0009696","UNWANTED PERSON","UNWANTED PERSON","************","",""
"04/25/2019","19:09","219CR0009697","JUVENILE MISC","JUVENILE MISC","************","",""
"04/25/2019","19:22","219CR0009698","HARASSMENT","HARASSMENT","320 W BROADWAY","",""
"04/25/2019","19:33","219CR0009699","FOUND PROPERTY","FOUND PROPERTY","************","",""
"04/25/2019","19:43","219CR0009700","SUSPICIOUS ACTIVITY","SUSPICIOUS ACTIVITY","847 W BROADWAY APT A","",""
"04/25/2019","19:48","219CR0009701","ALARM - BURGLARY","ALARM - BURGLARY","************","",""
"04/25/2019","19:51","219CR0009702","HIT AND RUN","HIT AND RUN","GLADSTONE ST AND AMHERST ST","",""
"04/25/2019","20:08","219CR0009703","MEDICAL - EMERGENCY","MEDICAL - EMERGENCY","9 REDWOOD","",""
"04/25/2019","20:12","219CR0009704","FIRE - OTHER","FIRE - OTHER","900 BLK EVANS","",""
"04/25/2019","20:31","219CR0009705","MEDICAL - EMERGENCY","MEDICAL - EMERGENCY","COPPER MOUTAIN PARK","",""
"04/25/2019","20:37","219CR0009706","SUSPICIOUS ACTIVITY","SUSPICIOUS ACTIVITY","201 HOBSON #48","",""
"04/25/2019","20:47","219CR0009707","SUSPICIOUS ACTIVITY","SUSPICIOUS ACTIVITY","1500 CALIFORNIA","",""
"04/25/2019","20:56","219CR0009708","SUSPICIOUS ACTIVITY","SUSPICIOUS ACTIVITY","NORTH HILCREST","",""
"04/25/2019","21:11","219CR0009709","DISTURBANCE","DISTURBANCE","719 S WYOMING","",""
"04/25/2019","21:35","219CR0009710","T/S","DUI - (REFUSAL)","CONTINENTAL AND MT HIGHLAND DR","ARREST(s) MADE",""
"04/25/2019","22:02","219CR0009711","ALARM - FIRE","ALARM - FIRE","119771 RICK JONES WAY FED EX","",""
"04/25/2019","22:29","219CR0009712","JUVENILE MISC","JUVENILE MISC","************","",""
"04/25/2019","22:52","219CR0009713","ASSAULT","ASSAULT","************","",""
"04/25/2019","22:52","219CR0009714","ASSAULT","ROBBERY","HARRISON AT SAFEWAY ON MASS","",""
"04/25/2019","22:56","219CR0009715","DISTURBANCE","DISTURBANCE","2544 HARRISON","",""
"04/25/2019","23:03","219CR0009716","BUSINESS CHECK","BUSINESS CHECK","2100 CORNELL QUALITY INN","",""
"04/25/2019","23:05","219CR0009717","SUSPICIOUS ACTIVITY","SUSPICIOUS ACTIVITY","400 S CLARK ST","",""
"04/25/2019","23:30","219CR0009718","ASSIST OTHER AGENCY","ASSIST OTHER AGENCY","I15 MM 122 SB","",""
"04/25/2019","23:32","219CR0009719","ATL","ATL","COBBAN AND HARRISON","",""
"04/25/2019","23:40","219CR0009720","VANDALISM/CRIMINAL MISCHIEF","VANDALISM/CRIMINAL MISCHIEF","225 N ALASKA ST","",""
"04/26/2019","00:11","219CR0009721","BUSINESS CHECK","BUSINESS CHECK","2000 DEWEY BLVD DOTTYS CASINO","",""
"04/26/2019","00:41","219CR0009722","ASSIST OTHER AGENCY","PAROLE VIOLATION","62 W BROADWAY","ARREST(s) MADE",""
"04/26/2019","01:25","219CR0009723","INTOXICATED PERSON","INTOXICATED PERSON","2720 ELM","",""
"04/26/2019","01:46","219CR0009724","BUSINESS CHECK","BUSINESS CHECK","1 W PARK","",""
"04/26/2019","01:58","219CR0009725","SUSPICIOUS ACTIVITY","SUSPICIOUS ACTIVITY","76 W ALUMINUM","",""
"04/26/2019","02:05","219CR0009726","SUSPICIOUS ACTIVITY","CRIMINAL CONTEMPT","2000 BLK REYNOLDS","ARREST(s) MADE",""
"04/26/2019","02:19","219CR0009727","ALARM - BURGLARY","ALARM - BURGLARY","************","",""
"04/26/2019","03:32","219CR0009728","SUSPICIOUS ACTIVITY","SUSPICIOUS ACTIVITY","1106 LEWISHON","",""
"04/26/2019","03:35","219CR0009729","JUVENILE MISC","SEXUAL ASSAULT","************","",""
"04/26/2019","03:44","219CR0009730","SUSPICIOUS ACTIVITY","SUSPICIOUS ACTIVITY","200 N ALABAMA #A","",""
"04/26/2019","03:55","219CR0009731","FOUND PROPERTY","FOUND PROPERTY","************","",""
"04/26/2019","05:33","219CR0009732","MEDICAL - EMERGENCY","MEDICAL - EMERGENCY","2400 BLK CONTINENTAL DR","",""
"04/26/2019","06:05","219CR0009733","CITIZEN AID","CITIZEN AID","I15 NB","",""
"04/26/2019","06:36","219CR0009734","ALARM - FIRE","ALARM - FIRE","3701 ELIZABETH WARREN","",""
 

BSB police report ending April 25, 2019

"04/22/2019","00:49","219CR0009330","SUSPICIOUS ACTIVITY","SUSPICIOUS ACTIVITY","3755 HARRISON AVE","",""
"04/22/2019","01:00","219CR0009331","T/S","DRIVE WHILE SUSP. OR REVOKED","HARRISON AND OTTAWA","ARREST(s) MADE",""
"04/22/2019","02:18","219CR0009332","VANDALISM/CRIMINAL MISCHIEF","VANDALISM/CRIMINAL MISCHIEF","3202 YALE","",""
"04/22/2019","02:26","219CR0009333","MEDICAL - EMERGENCY","MEDICAL - EMERGENCY","1324 HARRISON","",""
"04/22/2019","02:34","219CR0009334","THEFT","THEFT, SHOPLIFT","531 S MONTANA","",""
"04/22/2019","02:46","219CR0009335","ALL OTHER","ALL OTHER","145 MOOSE CREEK RD","",""
"04/22/2019","06:29","219CR0009336","THEFT","THEFT","1325 KAW AVE","",""
"04/22/2019","06:29","219CR0009337","ALARM - MEDICAL","ALARM - MEDICAL","************","",""
"04/22/2019","06:33","219CR0009338","ALL OTHER","ALL OTHER","HIGHLANDS","",""
"04/22/2019","07:22","219CR0009339","T/S","T/S","500 BLK CENTENNIAL","",""
"04/22/2019","07:24","219CR0009340","CIVIL PAPER SERVICE","CIVIL PAPER SERVICE","665 S MAIN","",""
"04/22/2019","07:36","219CR0009341","T/S","T/S","4655 HARRISON AV","",""
"04/22/2019","07:43","219CR0009342","CIVIL PAPER SERVICE","CIVIL PAPER SERVICE","647 1/2 S IDAHO","",""
"04/22/2019","07:45","219CR0009343","CIVIL PAPER SERVICE","CIVIL PAPER SERVICE","5100 WARREN #56","",""
"04/22/2019","07:46","219CR0009344","WELFARE CHECK","WELFARE CHECK","I 15 MM 127","",""
"04/22/2019","07:57","219CR0009345","BURGLARY","BURGLARY, RESIDENCE","303 N WASHINGTON","",""
"04/22/2019","07:59","219CR0009346","CIVIL PAPER SERVICE","CIVIL PAPER SERVICE","1100 CALIFORNIA","",""
"04/22/2019","08:10","219CR0009347","CIVIL PAPER SERVICE","CIVIL PAPER SERVICE","17 S WASHINGTON 2D","",""
"04/22/2019","08:27","219CR0009348","THEFT","THEFT","503 W MERCURY","",""
"04/22/2019","08:31","219CR0009349","CIVIL PAPER SERVICE","CIVIL PAPER SERVICE","121 W GRANITE","",""
"04/22/2019","08:55","219CR0009350","LOST CHILD","LOST CHILD","************","",""
"04/22/2019","09:14","219CR0009351","CIVIL PAPER SERVICE","CIVIL PAPER SERVICE","775 W GOLD ST","",""
"04/22/2019","09:27","219CR0009352","CIVIL PAPER SERVICE","CIVIL PAPER SERVICE","1151 W PORPHYRY ST","",""
"04/22/2019","09:29","219CR0009353","CIVIL PAPER SERVICE","CIVIL PAPER SERVICE","201 HOBSON #11","",""
"04/22/2019","09:41","219CR0009354","CIVIL PAPER SERVICE","CIVIL PAPER SERVICE","1715 ELM","",""
"04/22/2019","09:48","219CR0009355","CIVIL PAPER SERVICE","CIVIL PAPER SERVICE","1817 HOWARD AVE","",""
"04/22/2019","09:53","219CR0009356","CIVIL PAPER SERVICE","CIVIL PAPER SERVICE","33 E IRON","",""
"04/22/2019","09:58","219CR0009357","CIVIL PAPER SERVICE","CIVIL PAPER SERVICE","2701 GRAND AVE","",""
"04/22/2019","10:07","219CR0009358","CIVIL PAPER SERVICE","CIVIL PAPER SERVICE","2122 ARGYLE","",""
"04/22/2019","10:11","219CR0009359","CIVIL PAPER SERVICE","CIVIL PAPER SERVICE","3025 EAGLE","",""
"04/22/2019","10:16","219CR0009360","UNKNOWN PROBLEM","UNKNOWN PROBLEM","1700 MARCIA ST","",""
"04/22/2019","10:18","219CR0009361","VEHICLE INSPECTION","VEHICLE INSPECTION","2633 PLACER ST","",""
"04/22/2019","10:29","219CR0009362","MEDICAL - EMERGENCY","MEDICAL - EMERGENCY","208 NEVERSWEAT","",""
"04/22/2019","10:41","219CR0009363","MEDICAL - EMERGENCY","MEDICAL - EMERGENCY","416 W BROADWAY ST","",""
"04/22/2019","10:42","219CR0009364","CITIZEN AID","CITIZEN AID","WHITEHALL","",""
"04/22/2019","10:52","219CR0009365","T/S","T/S @ HARRISON AND HARVARD","HARRISON AND HARVARD","",""
"04/22/2019","11:02","219CR0009366","RESTRAINING ORDER VIOLATION","VIOLATION OF PROTECTION ORDER","3532 OREGON","",""
"04/22/2019","11:07","219CR0009368","T/S","T/S @ HARRISON AND HARVARD","HARRISON AND HARVARD","",""
"04/22/2019","11:09","219CR0009369","ACCIDENT-MHP","ACCIDENT-MHP","I 90 MM 214 W BND","",""
"04/22/2019","11:34","219CR0009370","VANDALISM/CRIMINAL MISCHIEF","VANDALISM/CRIMINAL MISCHIEF","800 BLK NEVADA","",""
"04/22/2019","11:39","219CR0009371","SUSPICIOUS ACTIVITY","SUSPICIOUS ACTIVITY","230 S WASHINGTON #303","",""
"04/22/2019","11:54","219CR0009372","T/S","T/S @ 2200 BLK AMHERST","2200 BLK AMHERST","",""
"04/22/2019","12:21","219CR0009374","T/S","T/S @ FRONT AND IOWA","FRONT AND IOWA","",""
"04/22/2019","12:22","219CR0009375","CITIZEN AID","CITIZEN AID","3112 HANNIBAL ST","",""
"04/22/2019","12:28","219CR0009376","THEFT","THEFT","120 N PARKMONT","",""
"04/22/2019","12:45","219CR0009378","UNWANTED PERSON","UNWANTED PERSON","************","",""
"04/22/2019","13:01","219CR0009379","THEFT","THEFT, ALL OTHERS","2712 WALNUT","",""
"04/22/2019","13:23","219CR0009380","DISTURBANCE","PFMA - REASONABLE APPREHENSION","2614 ARGYLE","",""
"04/22/2019","13:31","219CR0009381","THEFT","BURGLARY, RESIDENCE","1400 TEXAS","",""
"04/22/2019","13:48","219CR0009382","LOST CHILD","LOST CHILD","************","",""
"04/22/2019","13:51","219CR0009383","SUSPICIOUS ACTIVITY","SUSPICIOUS ACTIVITY","GEORGE ST AND STUART AVE","",""
"04/22/2019","13:59","219CR0009384","T/S","T/S @ LAFAYETTE AND GREGSON","LAFAYETTE AND GREGSON","",""
"04/22/2019","14:05","219CR0009385","SUSPICIOUS ACTIVITY","SUSPICIOUS ACTIVITY","OLD ROCKER SCHOOL HOUSE","",""
"04/22/2019","14:06","219CR0009386","MEDICAL - EMERGENCY","MEDICAL - EMERGENCY","1500 FAIRMONT RD","",""
"04/22/2019","14:13","219CR0009387","MEDICAL - EMERGENCY","MEDICAL - EMERGENCY","2030 LOCUST","",""
"04/22/2019","14:51","219CR0009388","SUSPICIOUS ACTIVITY","SUSPICIOUS ACTIVITY","ARIZONA AND SECOND","",""
"04/22/2019","14:56","219CR0009389","WANTED PERSON","WANTED PERSON","************","",""
"04/22/2019","14:58","219CR0009390","T/S","T/S @ PARK AND HENRY","PARK AND HENRY","",""
"04/22/2019","15:07","219CR0009391","DETENTION BUSINESS","DETENTION BUSINESS","************","",""
"04/22/2019","15:09","219CR0009392","T/S","T/S @ MONTANA ST AND GOLD ST","MONTANA ST AND GOLD ST","",""
"04/22/2019","15:20","219CR0009393","T/S","T/S","2801 HARRISON AVE","",""
"04/22/2019","15:23","219CR0009394","LED CRASH","LED CRASH","21 HOLLY LANE","",""
"04/22/2019","15:25","219CR0009395","BUSINESS CHECK","BUSINESS CHECK","58 W PARK","",""
"04/22/2019","15:35","219CR0009396","THEFT","THEFT, ALL OTHERS","2929 HARRISON AVE","",""
"04/22/2019","15:38","219CR0009397","THEFT","THEFT, ALL OTHERS","601 SILVER BOW HOMES","",""
"04/22/2019","15:39","219CR0009398","T/S","CRIMINAL CONTEMPT","ABERDEEN ST AND TEXAS AVE","ARREST(s) MADE",""
"04/22/2019","15:44","219CR0009399","T/S","T/S","901 E FRONT ST","",""
"04/22/2019","15:47","219CR0009400","CIVIL PAPER SERVICE","CIVIL PAPER SERVICE","187 TRINITY LOOP","",""
"04/22/2019","16:00","219CR0009401","ACCIDENT","ACCIDENT","LOCUST AND LAFAYETTE","",""
"04/22/2019","16:32","219CR0009402","T/S","VIOLATION OF RELEASE CONDITION","IOWA AND FIRST ST","ARREST(s) MADE",""
"04/22/2019","16:40","219CR0009403","SUICIDE ATTEMPT/THREAT","SUICIDE ATTEMPT/THREAT","************","",""
"04/22/2019","16:42","219CR0009404","ACCIDENT","ACCIDENT","FRONT AND ARIZONA","",""
"04/22/2019","16:46","219CR0009405","ATL","ATL","LEXINGTON AVE AND HOBSON ST","",""
"04/22/2019","16:48","219CR0009406","WANTED PERSON","WANTED PERSON","************","",""
"04/22/2019","17:02","219CR0009407","VANDALISM/CRIMINAL MISCHIEF","VANDALISM/CRIMINAL MISCHIEF","920 S COLORADO","",""
"04/22/2019","17:08","219CR0009408","WELFARE CHECK","DISORDERLY CONDUCT","3016 PAXON","ARREST(s) MADE",""
"04/22/2019","17:25","219CR0009409","CIVIL PAPER SERVICE","CIVIL PAPER SERVICE","225 N ALASKA ST","",""
"04/22/2019","17:33","219CR0009410","JUVENILE MISC","UNGOVERNABLE JUVENILE","3202 YALE AVE","ARREST(s) MADE",""
"04/22/2019","17:55","219CR0009411","ALL OTHER","ALL OTHER","62 W BROADWAY","",""
"04/22/2019","18:15","219CR0009412","WELFARE CHECK","WELFARE CHECK","50 W BROADWAY #205","",""
"04/22/2019","18:31","219CR0009413","VANDALISM/CRIMINAL MISCHIEF","VANDALISM/CRIMINAL MISCHIEF","841 PLACER ST","",""
"04/22/2019","18:56","219CR0009414","WELFARE CHECK","WELFARE CHECK","3249 FLORAL BLVD","",""
"04/22/2019","18:57","219CR0009415","SUSPICIOUS ACTIVITY","SUSPICIOUS ACTIVITY","58 W PARK","",""
"04/22/2019","19:00","219CR0009416","MEDICAL - EMERGENCY","MEDICAL - EMERGENCY","58 W PARK","",""
"04/22/2019","19:04","219CR0009417","WELFARE CHECK","WELFARE CHECK","2010 THOMAS AVE","",""
"04/22/2019","19:09","219CR0009418","SUSPICIOUS ACTIVITY","SUSPICIOUS ACTIVITY","2023 WALNUT","",""
"04/22/2019","19:12","219CR0009419","ASSIST OTHER AGENCY","ASSIST OTHER AGENCY","2000 DEWEY","",""
"04/22/2019","19:18","219CR0009420","DISTURBANCE","DISTURBANCE","207 W PARK #2","",""
"04/22/2019","19:51","219CR0009421","T/S","T/S @ AMHERST AND SHERMAN","AMHERST AND SHERMAN","",""
"04/22/2019","19:52","219CR0009422","STOLEN VEHICLE","MOTOR VEHICLE THEFT","2500 MASSACHUSETTS AVE","",""
"04/22/2019","19:58","219CR0009423","MEDICAL - EMERGENCY","MEDICAL - EMERGENCY","I15 MM 98 NBND","",""
"04/22/2019","20:20","219CR0009424","WELFARE CHECK","WELFARE CHECK","111 W IRON ST","",""
"04/22/2019","20:24","219CR0009425","INTOXICATED PERSON","FAILURE TO DISPERSE","MINERS HOTEL/ 53 W PARK","ARREST(s) MADE",""
"04/22/2019","20:27","219CR0009426","T/S","T/S @ COBBAN ST AND FARRAGUT AVE","COBBAN ST AND FARRAGUT AVE","",""
"04/22/2019","20:31","219CR0009427","MEDICAL - EMERGENCY","MEDICAL - EMERGENCY","220 N WYOMING#105","",""
"04/22/2019","20:45","219CR0009429","WELFARE CHECK","WELFARE CHECK","2100 CONTINENTAL DR","",""
"04/22/2019","20:45","219CR0009428","JUVENILE MISC","JUVENILE MISC","************","",""
"04/22/2019","20:55","219CR0009430","UNKNOWN PROBLEM","UNKNOWN PROBLEM","2100 CORNELL #110","",""
"04/22/2019","21:29","219CR0009431","WELFARE CHECK","WELFARE CHECK","1125 S MAIN ST","",""
"04/22/2019","22:09","219CR0009432","VANDALISM/CRIMINAL MISCHIEF","CRIMINAL MISCHIEF","427 ROOSEVELT DR","",""
"04/22/2019","22:11","219CR0009433","DISTURBANCE","DISTURBANCE","400 S CLARK ST","",""
"04/22/2019","22:26","219CR0009434","T/S","T/S","HARRISON AND OTTAWA","",""
"04/22/2019","23:16","219CR0009435","T/S","T/S","MONTANA AND TECUMSEH WY","",""
"04/22/2019","23:21","219CR0009436","SUSPICIOUS ACTIVITY","SUSPICIOUS ACTIVITY","3000 HARRISON AVE","",""
"04/22/2019","23:28","219CR0009437","ANIMAL COMPLAINT","ANIMAL COMPLAINT","1370 HARRISON AVE","",""
"04/22/2019","23:41","219CR0009438","T/S","T/S","DEWEY AND HARRISON","",""
"04/22/2019","23:46","219CR0009439","T/S","T/S","2900 BLK HARRSON/PERKINS","",""
"04/22/2019","23:54","219CR0009440","T/S","T/S","DEWEY AND OREGON","",""
"04/23/2019","00:40","219CR0009441","T/S","T/S","HARRISON AND GRAND AVE","",""
"04/23/2019","00:42","219CR0009442","SUSPICIOUS ACTIVITY","SUSPICIOUS ACTIVITY","25 BEEF TRAIL RD","",""
"04/23/2019","01:23","219CR0009443","CITIZEN AID","CITIZEN AID","400 S CLARK ST","",""
"04/23/2019","01:59","219CR0009444","T/S","T/S @ PAXSON AVE AND 4 MILE RD","PAXSON AVE AND 4 MILE RD","",""
"04/23/2019","02:31","219CR0009445","T/S","T/S","PARK ST AND IDAHO ST","",""
"04/23/2019","02:56","219CR0009446","SUSPICIOUS ACTIVITY","SUSPICIOUS ACTIVITY","GRANITE MOUNTAIN ROAD","",""
"04/23/2019","03:08","219CR0009447","SUICIDE ATTEMPT/THREAT","SUICIDE ATTEMPT/THREAT","************","",""
"04/23/2019","04:03","219CR0009448","T/S","T/S","HARRISON AND I90 WBND","",""
"04/23/2019","05:21","219CR0009449","ALARM - MEDICAL","ALARM - MEDICAL","************","",""
"04/23/2019","05:29","219CR0009450","ATL","ATL","PARK // OKAHOMA","",""
"04/23/2019","05:53","219CR0009451","T/S","T/S @ ","","",""
"04/23/2019","07:18","219CR0009452","CIVIL PAPER SERVICE","CIVIL PAPER SERVICE","155 W QUARTZ","",""
"04/23/2019","07:20","219CR0009453","CIVIL PAPER SERVICE","CIVIL PAPER SERVICE","3139 FLORAL BLVD","",""
"04/23/2019","07:34","219CR0009455","CIVIL PAPER SERVICE","CIVIL PAPER SERVICE","3025 EAGLE","",""
 

Subcategories

Wednesday the 19th. Affiliate Marketing.
Copyright 2012

©